Location: Melita
(38.4566°N, 122.6369°W)
Time: 23:51:23
(UTC+00:00)

ATLAS 2AS CENTAUR R/B - Pass Details

Date: 24 January 2020
Orbit: 927 x 1285 km, 63.7° (Epoch: 21 February)

Event Time Altitude Azimuth Distance (km) Brightness Sun altitude
Exits shadow 12:29:52 36° 182° (S) 1,906 3.9 -33.6°
Maximum altitude 12:33:17 62° 117° (ESE) 1,417 3.4 -33.0°
Drops below altitude 10° 12:41:10 10° 39° (NE) 3,284 5.6 -31.4°
Sets 12:44:00 0° 36° (NE) 4,241 6.3 -30.9°
